Year,Month,Day,Hour,Minute,Value (Times are PST for temperature in C)
2013,08,22,00,00,15.70
2013,08,22,00,05,15.40
2013,08,22,00,06,15.40
2013,08,22,00,07,15.50
2013,08,22,00,08,15.60
2013,08,22,00,09,15.60
2013,08,22,00,10,15.70
2013,08,22,00,11,15.90
2013,08,22,00,12,16.00
2013,08,22,00,13,16.10
2013,08,22,00,14,16.20
2013,08,22,00,15,16.30
2013,08,22,00,16,16.30
2013,08,22,00,17,16.30
2013,08,22,00,18,16.30
2013,08,22,00,19,16.30
2013,08,22,00,20,16.30
2013,08,22,00,21,16.20
2013,08,22,00,22,16.20
2013,08,22,00,23,16.20
2013,08,22,00,24,16.20
2013,08,22,00,25,16.20
2013,08,22,00,26,16.30
2013,08,22,00,27,16.30
2013,08,22,00,28,16.40
2013,08,22,00,29,16.50
2013,08,22,00,30,16.50
2013,08,22,00,31,16.50
2013,08,22,00,32,16.60
2013,08,22,00,33,16.70
2013,08,22,00,34,16.80
2013,08,22,00,35,16.90
2013,08,22,00,36,16.90
2013,08,22,00,37,17.00
2013,08,22,00,38,17.00
2013,08,22,00,39,17.00
2013,08,22,00,40,17.10
2013,08,22,00,41,17.20
2013,08,22,00,42,17.20
2013,08,22,00,43,17.30
2013,08,22,00,44,17.30
2013,08,22,00,45,17.30
2013,08,22,00,46,17.30
2013,08,22,00,47,17.30
2013,08,22,00,48,17.30
2013,08,22,00,49,17.30
2013,08,22,00,50,17.30
2013,08,22,00,51,17.20
2013,08,22,00,52,17.20
2013,08,22,00,53,17.20
2013,08,22,00,54,17.20
2013,08,22,00,55,17.20
2013,08,22,00,56,17.20
2013,08,22,00,57,17.10
2013,08,22,00,58,17.20
2013,08,22,00,59,17.10
2013,08,22,01,00,17.10
2013,08,22,01,01,17.10
2013,08,22,01,02,17.10
2013,08,22,01,03,17.10
2013,08,22,01,04,17.10
2013,08,22,01,05,17.10
2013,08,22,01,06,17.00
2013,08,22,01,07,17.00
2013,08,22,01,08,17.00
2013,08,22,01,09,17.00
2013,08,22,01,10,16.90
2013,08,22,01,11,16.80
2013,08,22,01,12,16.70
2013,08,22,01,13,16.60
2013,08,22,01,14,16.60
2013,08,22,01,15,16.40
2013,08,22,01,16,16.30
2013,08,22,01,17,16.30
2013,08,22,01,18,16.30
2013,08,22,01,19,16.30
2013,08,22,01,20,16.20
2013,08,22,01,21,16.20
2013,08,22,01,22,16.10
2013,08,22,01,23,16.10
2013,08,22,01,24,16.00
2013,08,22,01,25,16.00
2013,08,22,01,26,15.90
2013,08,22,01,27,15.90
2013,08,22,01,28,15.90
2013,08,22,01,29,15.90
2013,08,22,01,30,16.00
2013,08,22,01,31,16.10
2013,08,22,01,32,16.20
2013,08,22,01,33,16.30
2013,08,22,01,34,16.40
2013,08,22,01,35,16.50
2013,08,22,01,36,16.50
2013,08,22,01,37,16.60
2013,08,22,01,38,16.70
2013,08,22,01,39,16.70
2013,08,22,01,40,16.80
2013,08,22,01,41,16.80
2013,08,22,01,42,16.70
2013,08,22,01,43,16.70
2013,08,22,01,44,16.70
2013,08,22,01,45,16.70
2013,08,22,01,46,16.60
2013,08,22,01,47,16.60
2013,08,22,01,48,16.60
2013,08,22,01,49,16.60
2013,08,22,01,50,16.60
2013,08,22,01,51,16.60
2013,08,22,01,52,16.60
2013,08,22,01,53,16.60
2013,08,22,01,54,16.70
2013,08,22,01,55,16.70
2013,08,22,01,56,16.70
2013,08,22,01,57,16.70
2013,08,22,01,58,16.70
2013,08,22,01,59,16.70
2013,08,22,02,00,16.70
2013,08,22,02,01,16.60
2013,08,22,02,02,16.60
2013,08,22,02,03,16.50
2013,08,22,02,04,16.40
2013,08,22,02,05,16.40
2013,08,22,02,06,16.30
2013,08,22,02,07,16.30
2013,08,22,02,08,16.30
2013,08,22,02,09,16.20
2013,08,22,02,10,16.20
2013,08,22,02,11,16.10
2013,08,22,02,12,16.00
2013,08,22,02,13,16.00
2013,08,22,02,14,15.90
2013,08,22,02,15,15.90
2013,08,22,02,16,15.80
2013,08,22,02,17,15.80
2013,08,22,02,18,15.80
2013,08,22,02,19,15.80
2013,08,22,02,20,15.90
2013,08,22,02,21,15.90
2013,08,22,02,22,16.00
2013,08,22,02,23,16.00
2013,08,22,02,24,16.00
2013,08,22,02,25,16.10
2013,08,22,02,26,16.20
2013,08,22,02,27,16.30
2013,08,22,02,28,16.30
2013,08,22,02,29,16.40
2013,08,22,02,30,16.40
2013,08,22,02,31,16.40
2013,08,22,02,35,16.30
2013,08,22,02,36,16.30
2013,08,22,02,37,16.20
2013,08,22,02,38,16.20
2013,08,22,02,39,16.20
2013,08,22,02,40,16.20
2013,08,22,02,41,16.20
2013,08,22,02,42,16.20
2013,08,22,02,43,16.20
2013,08,22,02,44,16.20
2013,08,22,02,45,16.20
2013,08,22,02,46,16.20
2013,08,22,02,47,16.20
2013,08,22,02,48,16.20
2013,08,22,02,49,16.20
2013,08,22,02,50,16.20
2013,08,22,02,51,16.20
2013,08,22,02,52,16.20
2013,08,22,02,53,16.20
2013,08,22,02,54,16.30
2013,08,22,02,55,16.30
2013,08,22,02,56,16.30
2013,08,22,02,57,16.30
2013,08,22,02,58,16.30
2013,08,22,02,59,16.30
2013,08,22,03,00,16.30
2013,08,22,03,01,16.30
2013,08,22,03,02,16.20
2013,08,22,03,03,16.20
2013,08,22,03,04,16.10
2013,08,22,03,05,16.00
2013,08,22,03,06,15.90
2013,08,22,03,07,15.80
2013,08,22,03,08,15.80
2013,08,22,03,09,15.70
2013,08,22,03,10,15.70
2013,08,22,03,11,15.70
2013,08,22,03,12,15.70
2013,08,22,03,13,15.70
2013,08,22,03,14,15.60
2013,08,22,03,15,15.60
2013,08,22,03,16,15.60
2013,08,22,03,17,15.60
2013,08,22,03,18,15.60
2013,08,22,03,19,15.60
2013,08,22,03,20,15.50
2013,08,22,03,21,15.50
2013,08,22,03,22,15.50
2013,08,22,03,23,15.40
2013,08,22,03,24,15.40
2013,08,22,03,25,15.40
2013,08,22,03,26,15.40
2013,08,22,03,27,15.40
2013,08,22,03,28,15.60
2013,08,22,03,29,15.70
2013,08,22,03,30,15.80
2013,08,22,03,31,15.80
2013,08,22,03,32,15.90
2013,08,22,03,33,15.90
2013,08,22,03,34,15.90
2013,08,22,03,35,15.90
2013,08,22,03,36,15.90
2013,08,22,03,37,15.90
2013,08,22,03,38,15.80
2013,08,22,03,39,15.80
2013,08,22,03,40,15.80
2013,08,22,03,41,15.80
2013,08,22,03,42,15.80
2013,08,22,03,43,15.90
2013,08,22,03,44,15.90
2013,08,22,03,45,15.90
2013,08,22,03,46,15.80
2013,08,22,03,47,15.80
2013,08,22,03,48,15.80
2013,08,22,03,49,15.70
2013,08,22,03,50,15.70
2013,08,22,03,51,15.70
2013,08,22,03,52,15.70
2013,08,22,03,53,15.70
2013,08,22,03,54,15.70
2013,08,22,03,55,15.70
2013,08,22,03,56,15.70
2013,08,22,03,57,15.70
2013,08,22,03,58,15.70
2013,08,22,03,59,15.60
2013,08,22,04,00,15.60
2013,08,22,04,01,15.60
2013,08,22,04,02,15.60
2013,08,22,04,03,15.60
2013,08,22,04,04,15.50
2013,08,22,04,05,15.50
2013,08,22,04,06,15.50
2013,08,22,04,07,15.40
2013,08,22,04,08,15.40
2013,08,22,04,09,15.40
2013,08,22,04,10,15.40
2013,08,22,04,11,15.40
2013,08,22,04,12,15.40
2013,08,22,04,13,15.40
2013,08,22,04,14,15.40
2013,08,22,04,15,15.40
2013,08,22,04,16,15.50
2013,08,22,04,17,15.50
2013,08,22,04,18,15.40
2013,08,22,04,19,15.40
2013,08,22,04,20,15.40
2013,08,22,04,21,15.40
2013,08,22,04,22,15.40
2013,08,22,04,23,15.40
2013,08,22,04,24,15.40
2013,08,22,04,25,15.30
2013,08,22,04,26,15.30
2013,08,22,04,27,15.30
2013,08,22,04,28,15.30
2013,08,22,04,29,15.30
2013,08,22,04,30,15.30
2013,08,22,04,31,15.30
2013,08,22,04,32,15.20
2013,08,22,04,33,15.20
2013,08,22,04,34,15.20
2013,08,22,04,35,15.20
2013,08,22,04,36,15.20
2013,08,22,04,37,15.10
2013,08,22,04,38,15.10
2013,08,22,04,39,15.10
2013,08,22,04,40,15.10
2013,08,22,04,41,15.10
2013,08,22,04,42,15.00
2013,08,22,04,43,15.00
2013,08,22,04,44,15.00
2013,08,22,04,45,15.00
2013,08,22,04,46,14.90
2013,08,22,04,47,14.90
2013,08,22,04,48,14.90
2013,08,22,04,49,14.90
2013,08,22,04,50,14.80
2013,08,22,04,51,14.80
2013,08,22,04,52,14.80
2013,08,22,04,53,14.80
2013,08,22,04,54,14.80
2013,08,22,04,55,14.80
2013,08,22,04,56,14.70
2013,08,22,04,57,14.70
2013,08,22,04,58,14.70
2013,08,22,04,59,14.80
2013,08,22,05,00,14.80
2013,08,22,05,01,14.80
2013,08,22,05,02,14.80
2013,08,22,05,03,14.80
2013,08,22,05,04,14.80
2013,08,22,05,05,14.80
2013,08,22,05,06,14.80
2013,08,22,05,07,14.80
2013,08,22,05,08,14.80
2013,08,22,05,09,14.80
2013,08,22,05,10,14.80
2013,08,22,05,11,14.80
2013,08,22,05,12,14.80
2013,08,22,05,13,14.70
2013,08,22,05,14,14.70
2013,08,22,05,15,14.70
2013,08,22,05,16,14.70
2013,08,22,05,17,14.70
2013,08,22,05,18,14.70
2013,08,22,05,19,14.70
2013,08,22,05,20,14.70
2013,08,22,05,21,14.70
2013,08,22,05,22,14.70
2013,08,22,05,23,14.70
2013,08,22,05,24,14.70
2013,08,22,05,25,14.60
2013,08,22,05,26,14.60
2013,08,22,05,27,14.60
2013,08,22,05,28,14.60
2013,08,22,05,29,14.60
2013,08,22,05,30,14.60
2013,08,22,05,31,14.60
2013,08,22,05,32,14.60
2013,08,22,05,33,14.50
2013,08,22,05,34,14.50
2013,08,22,05,35,14.50
2013,08,22,05,36,14.50
2013,08,22,05,37,14.40
2013,08,22,05,38,14.40
2013,08,22,05,39,14.40
2013,08,22,05,40,14.40
2013,08,22,05,41,14.40
2013,08,22,05,42,14.40
2013,08,22,05,43,14.40
2013,08,22,05,44,14.40
2013,08,22,05,45,14.40
2013,08,22,05,46,14.40
2013,08,22,05,47,14.40
2013,08,22,05,48,14.40
2013,08,22,05,49,14.40
2013,08,22,05,50,14.40
2013,08,22,05,51,14.40
2013,08,22,05,52,14.40
2013,08,22,05,53,14.30
2013,08,22,05,54,14.30
2013,08,22,05,55,14.30
2013,08,22,05,56,14.30
2013,08,22,05,57,14.30
2013,08,22,05,58,14.30
2013,08,22,05,59,14.30
2013,08,22,06,00,14.30
2013,08,22,06,01,14.30
2013,08,22,06,02,14.30
2013,08,22,06,03,14.20
2013,08,22,06,04,14.20
2013,08,22,06,05,14.20
2013,08,22,06,06,14.20
2013,08,22,06,07,14.20
2013,08,22,06,08,14.20
2013,08,22,06,09,14.20
2013,08,22,06,10,14.20
2013,08,22,06,11,14.20
2013,08,22,06,12,14.20
2013,08,22,06,13,14.20
2013,08,22,06,14,14.20
2013,08,22,06,15,14.20
2013,08,22,06,16,14.20
2013,08,22,06,17,14.20
2013,08,22,06,18,14.20
2013,08,22,06,19,14.20
2013,08,22,06,20,14.20
2013,08,22,06,21,14.20
2013,08,22,06,22,14.20
2013,08,22,06,23,14.20
2013,08,22,06,24,14.20
2013,08,22,06,25,14.20
2013,08,22,06,26,14.20
2013,08,22,06,27,14.20
2013,08,22,06,28,14.10
2013,08,22,06,29,14.10
2013,08,22,06,30,14.10
2013,08,22,06,31,14.10
2013,08,22,06,32,14.10
2013,08,22,06,33,14.10
2013,08,22,06,34,14.10
2013,08,22,06,35,14.10
2013,08,22,06,36,14.10
2013,08,22,06,37,14.10
2013,08,22,06,38,14.10
2013,08,22,06,39,14.10
2013,08,22,06,40,14.10
2013,08,22,06,41,14.10
2013,08,22,06,42,14.10
2013,08,22,06,43,14.10
2013,08,22,06,44,14.10
2013,08,22,06,45,14.20
2013,08,22,06,46,14.20
2013,08,22,06,47,14.20
2013,08,22,06,48,14.20
2013,08,22,06,49,14.20
2013,08,22,06,50,14.30
2013,08,22,06,51,14.30
2013,08,22,06,52,14.30
2013,08,22,06,53,14.30
2013,08,22,06,54,14.40
2013,08,22,06,55,14.40
2013,08,22,06,56,14.40
2013,08,22,06,57,14.50
2013,08,22,06,58,14.50
2013,08,22,06,59,14.50
2013,08,22,07,00,14.60
2013,08,22,07,01,14.60
2013,08,22,07,02,14.60
2013,08,22,07,03,14.60
2013,08,22,07,04,14.70
2013,08,22,07,05,14.70
2013,08,22,07,06,14.70
2013,08,22,07,07,14.70
2013,08,22,07,08,14.80
2013,08,22,07,09,14.80
2013,08,22,07,10,14.80
2013,08,22,07,11,14.80
2013,08,22,07,12,14.90
2013,08,22,07,13,14.90
2013,08,22,07,14,14.90
2013,08,22,07,15,14.90
2013,08,22,07,16,15.00
2013,08,22,07,17,15.00
2013,08,22,07,18,15.00
2013,08,22,07,19,15.10
2013,08,22,07,20,15.10
2013,08,22,07,21,15.10
2013,08,22,07,22,15.20
2013,08,22,07,23,15.20
2013,08,22,07,24,15.20
2013,08,22,07,25,15.20
2013,08,22,07,26,15.30
2013,08,22,07,27,15.30
2013,08,22,07,28,15.30
2013,08,22,07,29,15.40
2013,08,22,07,30,15.40
2013,08,22,07,31,15.50
2013,08,22,07,32,15.50
2013,08,22,07,33,15.60
2013,08,22,07,34,15.60
2013,08,22,07,35,15.70
2013,08,22,07,36,15.70
2013,08,22,07,37,15.80
2013,08,22,07,38,15.80
2013,08,22,07,39,15.90
2013,08,22,07,40,16.00
2013,08,22,07,41,16.10
2013,08,22,07,42,16.20
2013,08,22,07,43,16.20
2013,08,22,07,44,16.30
2013,08,22,07,45,16.40
2013,08,22,07,46,16.50
2013,08,22,07,47,16.50
2013,08,22,07,48,16.60
2013,08,22,07,49,16.70
2013,08,22,07,50,16.70
2013,08,22,07,51,16.80
2013,08,22,07,52,16.90
2013,08,22,07,53,16.90
2013,08,22,07,54,17.00
2013,08,22,07,55,17.10
2013,08,22,07,56,17.10
2013,08,22,07,57,17.20
2013,08,22,07,58,17.30
2013,08,22,07,59,17.40
2013,08,22,08,00,17.50
2013,08,22,08,01,17.60
2013,08,22,08,02,17.80
2013,08,22,08,03,17.90
2013,08,22,08,04,18.00
2013,08,22,08,05,18.10
2013,08,22,08,06,18.20
2013,08,22,08,07,18.30
2013,08,22,08,08,18.30
2013,08,22,08,09,18.40
2013,08,22,08,10,18.50
2013,08,22,08,11,18.50
2013,08,22,08,12,18.60
2013,08,22,08,13,18.60
2013,08,22,08,14,18.60
2013,08,22,08,15,18.70
2013,08,22,08,16,18.70
2013,08,22,08,17,18.70
2013,08,22,08,18,18.70
2013,08,22,08,19,18.70
2013,08,22,08,20,18.70
2013,08,22,08,21,18.70
2013,08,22,08,22,18.80
2013,08,22,08,23,18.80
2013,08,22,08,24,18.80
2013,08,22,08,25,18.80
2013,08,22,08,26,18.80
2013,08,22,08,27,18.80
2013,08,22,08,28,18.90
2013,08,22,08,29,18.90
2013,08,22,08,30,18.90
2013,08,22,08,31,18.90
2013,08,22,08,32,18.90
2013,08,22,08,33,18.90
2013,08,22,08,34,18.90
2013,08,22,08,35,18.90
2013,08,22,08,36,18.90
2013,08,22,08,37,19.00
2013,08,22,08,38,19.00
2013,08,22,08,39,19.10
2013,08,22,08,40,19.10
2013,08,22,08,41,19.10
2013,08,22,08,42,19.10
2013,08,22,08,43,19.10
2013,08,22,08,44,19.20
2013,08,22,08,45,19.20
2013,08,22,08,46,19.20
2013,08,22,08,47,19.20
2013,08,22,08,48,19.20
2013,08,22,08,49,19.20
2013,08,22,08,50,19.20
2013,08,22,08,51,19.20
2013,08,22,08,52,19.20
2013,08,22,08,53,19.20
2013,08,22,08,54,19.20
2013,08,22,08,55,19.20
2013,08,22,08,56,19.20
2013,08,22,08,57,19.10
2013,08,22,08,58,19.10
2013,08,22,08,59,19.10
2013,08,22,09,00,19.10
2013,08,22,09,01,19.10
2013,08,22,09,02,19.10
2013,08,22,09,03,19.10
2013,08,22,09,04,19.00
2013,08,22,09,05,19.00
2013,08,22,09,06,19.00
2013,08,22,09,07,19.00
2013,08,22,09,08,19.10
2013,08,22,09,09,19.10
2013,08,22,09,10,19.20
2013,08,22,09,11,19.20
2013,08,22,09,12,19.20
2013,08,22,09,13,19.30
2013,08,22,09,14,19.40
2013,08,22,09,15,19.50
2013,08,22,09,16,19.50
2013,08,22,09,17,19.60
2013,08,22,09,18,19.60
2013,08,22,09,19,19.60
2013,08,22,09,20,19.60
2013,08,22,09,21,19.60
2013,08,22,09,22,19.60
2013,08,22,09,23,19.60
2013,08,22,09,24,19.60
2013,08,22,09,25,19.60
2013,08,22,09,26,19.50
2013,08,22,09,27,19.50
2013,08,22,09,28,19.50
2013,08,22,09,29,19.50
2013,08,22,09,30,19.40
2013,08,22,09,31,19.40
2013,08,22,09,32,19.30
2013,08,22,09,33,19.20
2013,08,22,09,34,19.10
2013,08,22,09,35,19.10
2013,08,22,09,36,19.10
2013,08,22,09,37,19.10
2013,08,22,09,38,19.10
2013,08,22,09,39,19.10
2013,08,22,09,40,19.10
2013,08,22,09,41,19.10
2013,08,22,09,42,19.10
2013,08,22,09,43,19.10
2013,08,22,09,44,19.10
2013,08,22,09,45,19.20
2013,08,22,09,46,19.20
2013,08,22,09,47,19.20
2013,08,22,09,48,19.20
2013,08,22,09,49,19.30
2013,08,22,09,50,19.30
2013,08,22,09,51,19.30
2013,08,22,09,52,19.40
2013,08,22,09,53,19.50
2013,08,22,09,54,19.60
2013,08,22,09,55,19.60
2013,08,22,09,56,19.70
2013,08,22,09,57,19.70
2013,08,22,09,58,19.60
2013,08,22,09,59,19.60
2013,08,22,10,00,19.60
2013,08,22,10,01,19.70
2013,08,22,10,02,19.70
2013,08,22,10,03,19.70
2013,08,22,10,04,19.70
2013,08,22,10,05,19.80
2013,08,22,10,06,19.90
2013,08,22,10,07,19.90
2013,08,22,10,08,19.90
2013,08,22,10,09,19.90
2013,08,22,10,10,19.80
2013,08,22,10,11,19.70
2013,08,22,10,12,19.70
2013,08,22,10,13,19.80
2013,08,22,10,14,19.80
2013,08,22,10,15,20.00
2013,08,22,10,16,20.10
2013,08,22,10,17,20.10
2013,08,22,10,18,20.20
2013,08,22,10,19,20.20
2013,08,22,10,20,20.20
2013,08,22,10,21,20.20
2013,08,22,10,22,20.20
2013,08,22,10,23,20.20
2013,08,22,10,24,20.20
2013,08,22,10,25,20.10
2013,08,22,10,26,20.10
2013,08,22,10,27,20.10
2013,08,22,10,28,20.00
2013,08,22,10,29,20.00
2013,08,22,10,30,19.90
2013,08,22,10,31,19.90
2013,08,22,10,32,19.80
2013,08,22,10,33,19.80
2013,08,22,10,34,19.80
2013,08,22,10,35,19.80
2013,08,22,10,36,19.80
2013,08,22,10,37,19.80
2013,08,22,10,38,19.90
2013,08,22,10,39,19.90
2013,08,22,10,40,19.90
2013,08,22,10,41,19.90
2013,08,22,10,42,20.00
2013,08,22,10,43,20.10
2013,08,22,10,44,20.20
2013,08,22,10,45,20.20
2013,08,22,10,46,20.20
2013,08,22,10,47,20.20
2013,08,22,10,48,20.20
2013,08,22,10,49,20.10
2013,08,22,10,50,20.10
2013,08,22,10,51,20.20
2013,08,22,10,52,20.20
2013,08,22,10,53,20.20
2013,08,22,10,54,20.20
2013,08,22,10,55,20.30
2013,08,22,10,56,20.20
2013,08,22,10,57,20.20
2013,08,22,10,58,20.30
2013,08,22,10,59,20.30
2013,08,22,11,00,20.40
2013,08,22,11,01,20.40
2013,08,22,11,02,20.40
2013,08,22,11,03,20.50
2013,08,22,11,04,20.40
2013,08,22,11,05,20.50
2013,08,22,11,06,20.50
2013,08,22,11,07,20.60
2013,08,22,11,08,20.70
2013,08,22,11,09,20.70
2013,08,22,11,10,20.70
2013,08,22,11,11,20.70
2013,08,22,11,12,20.70
2013,08,22,11,13,20.70
2013,08,22,11,14,20.70
2013,08,22,11,15,20.70
2013,08,22,11,16,20.70
2013,08,22,11,17,20.60
2013,08,22,11,18,20.60
2013,08,22,11,19,20.70
2013,08,22,11,20,20.70
2013,08,22,11,21,20.70
2013,08,22,11,22,20.80
2013,08,22,11,23,20.70
2013,08,22,11,24,20.70
2013,08,22,11,25,20.60
2013,08,22,11,26,20.60
2013,08,22,11,27,20.60
2013,08,22,11,28,20.70
2013,08,22,11,29,20.80
2013,08,22,11,30,20.80
2013,08,22,11,31,20.80
2013,08,22,11,32,20.70
2013,08,22,11,33,20.70
2013,08,22,11,34,20.60
2013,08,22,11,35,20.60
2013,08,22,11,36,20.60
2013,08,22,11,37,20.60
2013,08,22,11,38,20.60
2013,08,22,11,39,20.60
2013,08,22,11,40,20.60
2013,08,22,11,41,20.60
2013,08,22,11,42,20.60
2013,08,22,11,43,20.60
2013,08,22,11,44,20.70
2013,08,22,11,45,20.80
2013,08,22,11,46,20.90
2013,08,22,11,47,21.00
2013,08,22,11,48,21.10
2013,08,22,11,49,21.10
2013,08,22,11,50,21.20
2013,08,22,11,51,21.30
2013,08,22,11,52,21.30
2013,08,22,11,53,21.40
2013,08,22,11,54,21.50
2013,08,22,11,55,21.50
2013,08,22,11,56,21.60
2013,08,22,11,57,21.60
2013,08,22,11,58,21.70
2013,08,22,11,59,21.80
2013,08,22,12,00,21.80
2013,08,22,12,01,21.70
2013,08,22,12,02,21.70
2013,08,22,12,03,21.70
2013,08,22,12,04,21.70
2013,08,22,12,05,21.70
2013,08,22,12,06,21.80
2013,08,22,12,07,21.80
2013,08,22,12,08,21.80
2013,08,22,12,09,21.80
2013,08,22,12,10,21.80
2013,08,22,12,11,21.80
2013,08,22,12,12,21.80
2013,08,22,12,13,21.70
2013,08,22,12,14,21.70
2013,08,22,12,15,21.70
2013,08,22,12,16,21.80
2013,08,22,12,17,21.80
2013,08,22,12,18,21.70
2013,08,22,12,19,21.70
2013,08,22,12,20,21.70
2013,08,22,12,21,21.70
2013,08,22,12,22,21.90
2013,08,22,12,23,22.00
2013,08,22,12,24,22.10
2013,08,22,12,25,22.20
2013,08,22,12,26,22.20
2013,08,22,12,27,22.10
2013,08,22,12,28,22.10
2013,08,22,12,29,22.00
2013,08,22,12,30,22.00
2013,08,22,12,31,21.90
2013,08,22,12,32,21.90
2013,08,22,12,33,21.90
2013,08,22,12,34,21.90
2013,08,22,12,35,21.90
2013,08,22,12,36,22.00
2013,08,22,12,37,22.00
2013,08,22,12,38,22.10
2013,08,22,12,39,22.20
2013,08,22,12,40,22.30
2013,08,22,12,41,22.30
2013,08,22,12,42,22.30
2013,08,22,12,43,22.30
2013,08,22,12,44,22.40
2013,08,22,12,45,22.50
2013,08,22,12,46,22.50
2013,08,22,12,47,22.60
2013,08,22,12,48,22.60
2013,08,22,12,49,22.60
2013,08,22,12,50,22.60
2013,08,22,12,51,22.70
2013,08,22,12,52,22.70
2013,08,22,12,53,22.70
2013,08,22,12,54,22.80
2013,08,22,12,55,22.80
2013,08,22,12,56,22.80
2013,08,22,12,57,23.00
2013,08,22,12,58,23.10
2013,08,22,12,59,23.20
2013,08,22,13,00,23.20
2013,08,22,13,01,23.20
2013,08,22,13,02,23.20
2013,08,22,13,03,23.20
2013,08,22,13,04,23.20
2013,08,22,13,05,23.20
2013,08,22,13,06,23.20
2013,08,22,13,07,23.20
2013,08,22,13,08,23.20
2013,08,22,13,09,23.20
2013,08,22,13,10,23.20
2013,08,22,13,11,23.20
2013,08,22,13,12,23.30
2013,08,22,13,13,23.30
2013,08,22,13,14,23.30
2013,08,22,13,15,23.30
2013,08,22,13,16,23.40
2013,08,22,13,17,23.60
2013,08,22,13,18,23.60
2013,08,22,13,19,23.70
2013,08,22,13,20,23.80
2013,08,22,13,21,23.80
2013,08,22,13,22,23.80
2013,08,22,13,23,23.80
2013,08,22,13,24,23.80
2013,08,22,13,25,23.80
2013,08,22,13,26,23.90
2013,08,22,13,27,23.90
2013,08,22,13,28,23.90
2013,08,22,13,29,23.80
2013,08,22,13,30,23.80
2013,08,22,13,31,23.70
2013,08,22,13,32,23.70
2013,08,22,13,33,23.70
2013,08,22,13,34,23.80
2013,08,22,13,35,23.80
2013,08,22,13,36,23.70
2013,08,22,13,37,23.70
2013,08,22,13,38,23.70
2013,08,22,13,39,23.70
2013,08,22,13,40,23.80
2013,08,22,13,41,23.80
2013,08,22,13,42,23.90
2013,08,22,13,43,24.00
2013,08,22,13,44,24.10
2013,08,22,13,45,24.10
2013,08,22,13,46,24.10
2013,08,22,13,47,24.10
2013,08,22,13,48,24.20
2013,08,22,13,49,24.20
2013,08,22,13,50,24.30
2013,08,22,13,51,24.30
2013,08,22,13,52,24.30
2013,08,22,13,53,24.30
2013,08,22,13,54,24.40
2013,08,22,13,55,24.40
2013,08,22,13,56,24.40
2013,08,22,13,57,24.20
2013,08,22,13,58,24.10
2013,08,22,13,59,23.90
2013,08,22,14,00,23.90
2013,08,22,14,01,23.80
2013,08,22,14,02,23.80
2013,08,22,14,03,23.70
2013,08,22,14,04,23.60
2013,08,22,14,05,23.60
2013,08,22,14,06,23.60
2013,08,22,14,07,23.50
2013,08,22,14,08,23.50
2013,08,22,14,09,23.40
2013,08,22,14,10,23.40
2013,08,22,14,11,23.40
2013,08,22,14,12,23.50
2013,08,22,14,13,23.50
2013,08,22,14,14,23.60
2013,08,22,14,15,23.70
2013,08,22,14,16,23.80
2013,08,22,14,17,23.90
2013,08,22,14,18,24.00
2013,08,22,14,19,24.10
2013,08,22,14,20,24.10
2013,08,22,14,21,24.10
2013,08,22,14,22,24.10
2013,08,22,14,23,24.10
2013,08,22,14,24,24.00
2013,08,22,14,25,24.00
2013,08,22,14,26,24.00
2013,08,22,14,27,23.90
2013,08,22,14,28,23.90
2013,08,22,14,29,24.00
2013,08,22,14,30,24.00
2013,08,22,14,31,24.00
2013,08,22,14,32,24.20
2013,08,22,14,33,24.30
2013,08,22,14,34,24.30
2013,08,22,14,35,24.30
2013,08,22,14,36,24.30
2013,08,22,14,37,24.30
2013,08,22,14,38,24.30
2013,08,22,14,39,24.40
2013,08,22,14,40,24.50
2013,08,22,14,41,24.60
2013,08,22,14,42,24.70
2013,08,22,14,43,24.70
2013,08,22,14,44,24.70
2013,08,22,14,45,24.60
2013,08,22,14,46,24.60
2013,08,22,14,47,24.50
2013,08,22,14,48,24.40
2013,08,22,14,49,24.40
2013,08,22,14,50,24.40
2013,08,22,14,51,24.40
2013,08,22,14,52,24.30
2013,08,22,14,53,24.30
2013,08,22,14,54,24.30
2013,08,22,14,55,24.40
2013,08,22,14,56,24.40
2013,08,22,14,57,24.40
2013,08,22,14,58,24.40
2013,08,22,14,59,24.40
2013,08,22,15,00,24.40
2013,08,22,15,01,24.40
2013,08,22,15,02,24.40
2013,08,22,15,03,24.40
2013,08,22,15,04,24.30
2013,08,22,15,05,24.30
2013,08,22,15,06,24.30
2013,08,22,15,07,24.20
2013,08,22,15,08,24.10
2013,08,22,15,09,24.10
2013,08,22,15,10,24.10
2013,08,22,15,11,24.10
2013,08,22,15,12,24.10
2013,08,22,15,13,24.20
2013,08,22,15,14,24.20
2013,08,22,15,15,24.20
2013,08,22,15,16,24.30
2013,08,22,15,17,24.30
2013,08,22,15,18,24.30
2013,08,22,15,19,24.40
2013,08,22,15,20,24.50
2013,08,22,15,21,24.60
2013,08,22,15,22,24.70
2013,08,22,15,23,24.80
2013,08,22,15,24,24.80
2013,08,22,15,25,24.80
2013,08,22,15,26,24.80
2013,08,22,15,27,24.80
2013,08,22,15,28,24.80
2013,08,22,15,29,24.70
2013,08,22,15,30,24.60
2013,08,22,15,31,24.50
2013,08,22,15,32,24.50
2013,08,22,15,33,24.40
2013,08,22,15,34,24.40
2013,08,22,15,35,24.30
2013,08,22,15,36,24.30
2013,08,22,15,37,24.20
2013,08,22,15,38,24.20
2013,08,22,15,39,24.30
2013,08,22,15,40,24.30
2013,08,22,15,41,24.40
2013,08,22,15,42,24.40
2013,08,22,15,43,24.50
2013,08,22,15,44,24.40
2013,08,22,15,45,24.50
2013,08,22,15,46,24.60
2013,08,22,15,47,24.60
2013,08,22,15,48,24.60
2013,08,22,15,49,24.60
2013,08,22,15,50,24.60
2013,08,22,15,51,24.60
2013,08,22,15,52,24.70
2013,08,22,15,53,24.80
2013,08,22,15,54,24.90
2013,08,22,15,55,25.00
2013,08,22,15,56,25.10
2013,08,22,15,57,25.20
2013,08,22,15,58,25.20
2013,08,22,15,59,25.30
2013,08,22,16,00,25.40
2013,08,22,16,01,25.40
2013,08,22,16,02,25.40
2013,08,22,16,03,25.30
2013,08,22,16,04,25.30
2013,08,22,16,05,25.30
2013,08,22,16,06,25.30
2013,08,22,16,07,25.20
2013,08,22,16,08,25.20
2013,08,22,16,09,25.10
2013,08,22,16,10,25.00
2013,08,22,16,11,24.90
2013,08,22,16,12,24.90
2013,08,22,16,13,24.90
2013,08,22,16,14,24.90
2013,08,22,16,15,24.90
2013,08,22,16,16,24.90
2013,08,22,16,17,24.90
2013,08,22,16,18,24.90
2013,08,22,16,19,24.80
2013,08,22,16,20,24.80
2013,08,22,16,21,24.80
2013,08,22,16,22,24.80
2013,08,22,16,23,24.80
2013,08,22,16,24,24.80
2013,08,22,16,25,24.70
2013,08,22,16,26,24.70
2013,08,22,16,27,24.60
2013,08,22,16,28,24.60
2013,08,22,16,29,24.70
2013,08,22,16,30,24.80
2013,08,22,16,31,24.80
2013,08,22,16,32,24.90
2013,08,22,16,33,24.90
2013,08,22,16,34,25.00
2013,08,22,16,35,25.00
2013,08,22,16,36,25.00
2013,08,22,16,37,25.10
2013,08,22,16,38,25.20
2013,08,22,16,39,25.20
2013,08,22,16,40,25.20
2013,08,22,16,41,25.30
2013,08,22,16,42,25.30
2013,08,22,16,43,25.40
2013,08,22,16,44,25.50
2013,08,22,16,45,25.50
2013,08,22,16,46,25.50
2013,08,22,16,47,25.40
2013,08,22,16,48,25.50
2013,08,22,16,49,25.60
2013,08,22,16,50,25.70
2013,08,22,16,51,25.70
2013,08,22,16,52,25.70
2013,08,22,16,53,25.80
2013,08,22,16,54,25.90
2013,08,22,16,55,25.90
2013,08,22,16,56,26.00
2013,08,22,16,57,26.10
2013,08,22,16,58,26.10
2013,08,22,16,59,26.10
2013,08,22,17,00,26.10
2013,08,22,17,01,26.10
2013,08,22,17,02,26.10
2013,08,22,17,03,26.20
2013,08,22,17,04,26.20
2013,08,22,17,05,26.10
2013,08,22,17,06,26.10
2013,08,22,17,07,26.10
2013,08,22,17,08,26.00
2013,08,22,17,09,26.00
2013,08,22,17,10,25.90
2013,08,22,17,11,26.00
2013,08,22,17,12,26.00
2013,08,22,17,13,26.00
2013,08,22,17,14,25.90
2013,08,22,17,15,25.90
2013,08,22,17,16,25.80
2013,08,22,17,17,25.70
2013,08,22,17,18,25.70
2013,08,22,17,19,25.70
2013,08,22,17,20,25.70
2013,08,22,17,21,25.80
2013,08,22,17,22,25.80
2013,08,22,17,23,25.70
2013,08,22,17,24,25.70
2013,08,22,17,25,25.60
2013,08,22,17,26,25.50